Regional Weather Roundup
Issued by NWS Upton, NY

Current Version | Previous Version | Graphics & Text | Print | Product List | Glossary Off
Versions: 1 2 3 4 5 6 7 8 9 10 11 12 13 14 15 16 17 18 19 20 21 22 23 24 25 26 27 28 29 30 31 32 33 34 35 36 37 38 39 40 41 42 43 44 45 46 47 48 49 50

465
ASUS41 KOKX 140404
RWROKX

REGIONAL WEATHER ROUNDUP
NATIONAL WEATHER SERVICE NEW YORK NY
1100 PM EST SAT FEB 13 2016

NOTE: "FAIR" INDICATES FEW OR NO CLOUDS BELOW 12,000 FEET WITH NO
SIGNIFICANT WEATHER AND/OR OBSTRUCTIONS TO VISIBILITY.

NYZ071-072-176-178-NJZ106-104-140500-
NEW YORK CITY METRO AREA


CITY           SKY/WX    TMP DP  RH WIND       PRES   REMARKS
CENTRAL PARK   CLEAR      6 -14  39 NW10G24   30.30F WCI  -9
LAGUARDIA APRT PTCLDY     8  -9  45 NW26G37   30.30F WCI -14
KENNEDY INTL   PTCLDY     8 -15  34 NW23G36   30.31F WCI -13
NEWARK/LIBERTY PTCLDY     7 -13  39 W24G32    30.33S WCI -14
BRNX BOT. GARD   N/A      7 -15  36 NW6       30.28F WCI  -3
TETERBORO      CLEAR      6 -15  37 NW16G28   30.31F WCI -12
$$

NYZ177-179-078>081-140500-
LONG ISLAND NEW YORK

CITY           SKY/WX    TMP DP  RH WIND       PRES   REMARKS
FARMINGDALE    CLEAR      8 -16  32 NW18G25   30.30F WCI -11
ISLIP          PTCLDY     5 -16  37 NW23G32   30.26F WCI -17
SHIRLEY        PTCLDY     4 -15  41 NW22G35   30.28F WCI -18
RIVERHEAD        N/A      7 -24  23 NW10      30.24S WCI  -8
WESTHAMPTON    MOCLDY     2 -15  45 NW16G28   30.27S WCI -18
EAST HAMPTON   CLOUDY     4 -13  44 NW14G25   30.24S WCI -13
MONTAUK POINT    N/A      5 -11  47 W16G32    30.24S WCI -14
$$

NYZ052-065-067-140500-
HUDSON VALLEY

CITY           SKY/WX    TMP DP  RH WIND       PRES   REMARKS
WHITE PLAINS   CLEAR      3 -16  40 W23G36    30.22F WCI -19
NEWBURGH       MOCLDY     1 -11  55 NW14G23   30.24S WCI -17
MONTGOMERY     CLOUDY     3 -13  47 NW9       30.24F WCI -12
POUGHKEEPSIE   CLOUDY     5 -13  43 N15       30.27S WCI -13
ALBANY         PTCLDY    -8 -26  41 NW22G28   30.32S WCI -33
$$

NJZ001-105-106-008-010-013-015-019>022-104-140500-
NEW JERSEY

CITY           SKY/WX    TMP DP  RH WIND       PRES   REMARKS
NEWARK/LIBERTY PTCLDY     7 -13  39 W24G32    30.33S WCI -14
TETERBORO      CLEAR      6 -15  37 NW16G28   30.31F WCI -12
CALDWELL       CLEAR      5 -17  35 NW17G33   30.31F WCI -14
MORRISTOWN     CLEAR      5 -15  39 W13G20    30.31F WCI -12
SOMERVILLE     CLEAR      6 -10  47 NW9G18    30.32S WCI  -8
SUSSEX         CLEAR      3 -14  45 VRB7G18   30.26S WCI  -9
ANDOVER          N/A      2 -14  47 VRB7G20   30.27F WCI -11
TRENTON        PTCLDY    11 -11  36 NW18G29   30.31F WCI  -7
MILLVILLE      PTCLDY    13  -1  54 W12       30.37S WCI  -1
ATLANTIC CITY  CLEAR     12  -6  44 W9        30.35S WCI   0
WRIGHTSTOWN    CLEAR     11 -12  35 NW12G22   30.29F WCI  -3
TOMS RIVER     PTCLDY    10  -9  40 NW8       30.33S WCI  -1
BELMAR         CLEAR      9 -15  33 NW14      30.30S WCI  -8
$$

PAZ047>061-062-071-140500-
EASTERN PENNSYLVANIA

CITY           SKY/WX    TMP DP  RH WIND       PRES   REMARKS
PHILADELPHIA   PTCLDY    14  -8  37 W13G21    30.37S WCI   0
ALLENTOWN      CLOUDY     9  -9  44 NW15G24   30.31S WCI  -8
SCRANTON       PTCLDY     1 -11  57 NW15G24   30.26S WCI -18
$$

CTZ002-004>006-009-010-012-RIZ004-006-007-MAZ004-011-015-140500-
SOUTHERN NEW ENGLAND
 IN CT

CITY           SKY/WX    TMP DP  RH WIND       PRES   REMARKS
BRADLEY INTL   CLEAR     -3 -19  46 NW17G32   30.22F WCI -24
HARTFORD       PTCLDY    -1 -18  44 NW15G25   30.27R WCI -21
DANBURY        CLOUDY     1 -18  40 NW12G20   30.23S WCI -16
WTRBRY/OXFORD  CLOUDY     0 -24  32 N13G21    30.18S WCI -18
BRIDGEPORT     CLEAR      4 -16  39 NW15G26   30.28R WCI -14
MERIDEN        PTCLDY     1 -16  44 NW12      30.25R WCI -16
NEW HAVEN      CLEAR      3 -15  43 NW10G18   30.26S WCI -12
CHESTER        FAIR       1 -18  39 NW8       30.20S WCI -12
GROTON         CLEAR      1 -14  49 NW15      30.23S WCI -18
WILLIMANTIC    CLEAR     -1 -19  42 W20G32    30.21F WCI -23

 IN RI

CITY           SKY/WX    TMP DP  RH WIND       PRES   REMARKS
PROVIDENCE     CLEAR     -1 -21  38 NW17G30   30.18S WCI -22
BLOCK ISLAND   MOCLDY     3 -11  51 NW20G33   30.17F WCI -18
WESTERLY       CLEAR      0 -18  42 W10G20    30.21S WCI -16

 IN MA

CITY           SKY/WX    TMP DP  RH WIND       PRES   REMARKS
BOSTON         PTCLDY    -1 -18  44 NW18G25   30.14S WCI -22
WORCESTER      CLEAR     -8 -23  47 W21G32    30.03S WCI -33
WESTFIELD      CLEAR     -6 -25  39 NW22G30   30.21S WCI -31
PROVINCETOWN   CLOUDY     4  -6  63 NW24G38   30.09R WCI -19
NANTUCKET      MOCLDY     5 -10  50 NW23G35   30.11R WCI -17
$$

ANZ330-335-338-340-345-350-353-355-140500-
COASTAL MARINE OBSERVATIONS


STATION/POSITION TIME  SKY/WX   TEMP    WIND        PRES    VSBY  WAVE
                                AIR SEA DIR/SP/G                  HT/PER
                 (UTC)          (F)     (DEG/KT/KT) (MB)    (MI)  (FT/S)
NY HARB ENTRANCE 0250            12 42  310/ 25/ 37 1025.8          5/ 5
4S FIRE IS       NOT AVBL
20S FIRE ISLAND  0250            12 41  320/ 33/ 41 1025.1          9/ 7
GREAT SOUTH BAY  NOT AVBL
23SW MTP         0350             9 44  290/ 27/ 33 1023.2          9/ 8
HUDSON CANYON    0250            19 48              1023.5         14/ 9
KINGS POINT      0300             7 33              1026.1
EXECUTION ROCKS  NOT AVBL
CENTRAL LI SOUND 0330             7     290/ 23/ 37   N/A           5/ 6
EASTERN LI SOUND 0300             8 40  300/ 23/ 31   N/A
ROBBINS REEF     0300             7                 1026.1
$$


>>>>>>>>>>>>>>>>>>>>>>>>>>>> KEY <<<<<<<<<<<<<<<<<<<<<<<<<<<
>                                                          <
>     SKY/WX - SKY CONDITION/PRESENT WEATHER               <
>     TMP    - TEMPERATURE IN FAHRENHEIT                   <
>     DP     - DEWPOINT IN FAHRENHEIT                      <
>     RH     - RELATIVE HUMIDITY IN PERCENT                <
>     WIND   - DIRECTION AND SPEED IN MPH                  <
>     PRES   - MEAN SEA LEVEL PRESSURE IN INCHES OF HG     <
>     WCI    - WIND CHILL INDEX                            <
>     VSB    - VISIBILITY IN MILES                         <
>     HX     - HEAT INDEX                                  <
>     TC     - TEMPERATURE IN CELSIUS                      <
>     VRB    - VARIABLE WIND DIRECTION                     <
>                                                          <
>>>>>>>>>>>>>>>>>>>>>>>>>>>> KEY <<<<<<<<<<<<<<<<<<<<<<<<<<<






USA.gov is the U.S. government's official web portal to all federal, state and local government web resources and services.